GW3210 Weather Reports


Display with metric or nautical units.
time (UTC)temp
F
wind
direction
speed
MPH
gust
MPH
rain 1hr
in
rain 24hr
in
rain mn
in
humidity
%
barometer
mb
20260504234117 74 248 3.0 5.0 0.00 0.00 0.00 41 1012.8
20260504233137 73 248 6.0 9.0 0.00 0.00 0.00 42 1012.8
20260504232117 74 225 4.0 5.0 0.00 0.00 0.00 40 1012.9
20260504231117 74 248 5.0 8.0 0.00 0.00 0.00 40 1013.0
20260504230137 74 248 7.0 10.0 0.00 0.00 0.00 40 1013.1
20260504225219 73 225 3.0 6.0 0.00 0.00 0.00 40 1013.2
20260504224117 73 158 2.0 4.0 0.00 0.00 0.00 41 1013.4
20260504223137 72 270 5.0 6.0 0.00 0.00 0.00 41 1013.4
20260504222117 72 270 6.0 9.0 0.00 0.00 0.00 43 1013.6
20260504221117 71 248 4.0 7.0 0.00 0.00 0.00 44 1013.7
20260504220117 71 270 3.0 4.0 0.00 0.00 0.00 45 1013.8
20260504215137 70 225 3.0 5.0 0.00 0.00 0.00 43 1013.8
20260504214117 70 248 4.0 7.0 0.00 0.00 0.00 44 1013.9
20260504213117 70 158 2.0 5.0 0.00 0.00 0.00 44 1014.0
20260504212117 69 248 4.0 7.0 0.00 0.00 0.00 45 1014.0
20260504211137 69 248 3.0 5.0 0.00 0.00 0.00 45 1014.1
20260504210116 69 158 3.0 4.0 0.00 0.00 0.00 46 1014.3
20260504205138 69 203 3.0 4.0 0.00 0.00 0.00 46 1014.4
20260504204137 68 135 3.0 5.0 0.00 0.00 0.00 47 1014.5
20260504203117 68 270 2.0 4.0 0.00 0.00 0.00 49 1014.6
20260504202117 67 0.0 1.0 0.00 0.00 0.00 50 1014.5
20260504201117 67 248 1.0 2.0 0.00 0.00 0.00 49 1014.7
20260504200116 66 248 3.0 5.0 0.00 0.00 0.00 50 1014.8
20260504195116 66 203 1.0 2.0 0.00 0.00 0.00 49 1014.9
20260504194116 65 203 3.0 4.0 0.00 0.00 0.00 52 1014.9
20260504193117 64 203 2.0 4.0 0.00 0.00 0.00 52 1014.9
20260504192116 64 270 3.0 7.0 0.00 0.00 0.00 53 1015.0
20260504191138 64 248 4.0 8.0 0.00 0.00 0.00 53 1015.1
20260504190116 63 225 3.0 5.0 0.00 0.00 0.00 54 1015.1
20260504185117 61 225 2.0 3.0 0.00 0.00 0.00 57 1015.1
20260504184137 60 270 5.0 7.0 0.00 0.00 0.00 58 1015.3
20260504183117 59 113 3.0 4.0 0.00 0.00 0.00 57 1015.2
20260504182117 59 203 1.0 2.0 0.00 0.00 0.00 58 1015.2
20260504181116 58 248 4.0 7.0 0.00 0.00 0.00 59 1015.1
20260504180117 58 135 4.0 5.0 0.00 0.00 0.00 59 1015.3
20260504175116 57 180 1.0 2.0 0.00 0.00 0.00 59 1015.2
20260504174116 58 270 4.0 7.0 0.00 0.00 0.00 59 1015.2
20260504173137 58 158 2.0 3.0 0.00 0.00 0.00 60 1015.2
20260504172116 57 158 2.0 2.0 0.00 0.00 0.00 60 1015.1
20260504171137 57 135 2.0 5.0 0.00 0.00 0.00 61 1015.1
20260504170117 57 135 5.0 7.0 0.00 0.00 0.00 62 1015.1
20260504160116 56 158 2.0 2.0 0.00 0.00 0.00 62 1015.1
20260504151116 55 135 6.0 9.0 0.00 0.00 0.00 63 1014.8
20260504150116 55 135 4.0 5.0 0.00 0.00 0.00 63 1014.6
20260504141116 54 135 3.0 5.0 0.00 0.00 0.00 64 1014.1
20260504140115 54 158 1.0 3.0 0.00 0.00 0.00 64 1014.0
20260504130116 55 135 4.0 8.0 0.00 0.00 0.00 63 1013.1
20260504120116 58 158 4.0 7.0 0.00 0.00 0.00 59 1012.3
20260504110136 61 135 3.0 5.0 0.00 0.00 0.00 54 1011.9
20260504100137 63 158 4.0 7.0 0.00 0.00 0.00 48 1011.3
20260504081138 66 158 1.0 2.0 0.00 0.00 0.00 44 1010.6
20260504080137 66 158 2.0 4.0 0.00 0.00 0.00 44 1010.6
20260504070117 68 180 2.0 2.0 0.00 0.00 0.00 43 1010.3
20260504060116 73 293 2.0 3.0 0.00 0.00 0.00 32 1010.0
20260504050116 75 293 4.0 7.0 0.00 0.00 0.00 31 1009.5
20260504045115 76 293 4.0 6.0 0.00 0.00 0.00 31 1009.6
20260504044115 76 293 4.0 7.0 0.00 0.00 0.00 31 1009.4
20260504043115 77 315 3.0 4.0 0.00 0.00 0.00 31 1009.3
20260504042116 77 293 2.0 4.0 0.00 0.00 0.00 31 1009.4
20260504041136 78 315 3.0 5.0 0.00 0.00 0.00 30 1009.2
20260504040116 78 338 3.0 4.0 0.00 0.00 0.00 29 1009.2
20260504035158 79 315 3.0 4.0 0.00 0.00 0.00 29 1009.1
20260504034116 79 315 3.0 5.0 0.00 0.00 0.00 28 1009.1
20260504033118 80 315 3.0 4.0 0.00 0.00 0.00 28 1009.0
20260504032117 80 315 2.0 5.0 0.00 0.00 0.00 27 1008.9
20260504031117 81 315 5.0 8.0 0.00 0.00 0.00 26 1008.8
20260504030117 81 315 6.0 10.0 0.00 0.00 0.00 25 1008.8
20260504025118 82 315 4.0 6.0 0.00 0.00 0.00 24 1008.8
20260504024158 82 315 4.0 6.0 0.00 0.00 0.00 23 1008.6
20260504023117 83 315 4.0 8.0 0.00 0.00 0.00 23 1008.7
20260504022117 83 338 4.0 8.0 0.00 0.00 0.00 22 1008.8
20260504021117 83 315 5.0 9.0 0.00 0.00 0.00 22 1008.7
20260504020117 84 315 5.0 8.0 0.00 0.00 0.00 21 1008.8
20260504015117 85 315 6.0 9.0 0.00 0.00 0.00 20 1008.8
20260504014118 85 0 5.0 9.0 0.00 0.00 0.00 20 1008.8
20260504013137 87 315 5.0 8.0 0.00 0.00 0.00 18 1009.0
20260504012117 88 0 5.0 10.0 0.00 0.00 0.00 17 1009.2
20260504011117 89 338 6.0 10.0 0.00 0.00 0.00 17 1009.4
20260504010137 89 293 7.0 11.0 0.00 0.00 0.00 16 1009.6
20260504005117 90 315 6.0 10.0 0.00 0.00 0.00 16 1009.7
20260504004117 90 338 4.0 6.0 0.00 0.00 0.00 18 1009.7
20260504003117 91 338 5.0 8.0 0.00 0.00 0.00 16 1009.7
20260504002117 91 315 5.0 10.0 0.00 0.00 0.00 15 1009.8
20260504001117 91 315 5.0 9.0 0.00 0.00 0.00 14 1009.9
20260504000117 91 315 6.0 11.0 0.00 0.00 0.00 14 1010.0
20260503235117 91 0 2.0 5.0 0.00 0.00 0.00 16 1010.0